owner,sensor,date,latitude,longitude,vertical_datum,sea_water_temperature,qcFlag
Shell,ioos:station:wmo:42902:1,2021-03-01T00:06:00Z,28.6248,-87.9973,11.6,23.1,11111222
Shell,ioos:station:wmo:42902:1,2021-03-01T00:16:00Z,28.6249,-87.9973,11.6,23.1,11111222
Shell,ioos:station:wmo:42902:1,2021-03-01T00:26:00Z,28.6248,-87.9973,11.6,23.0,11111222
Shell,ioos:station:wmo:42902:1,2021-03-01T00:36:00Z,28.6249,-87.9973,11.6,22.9,11111222
Shell,ioos:station:wmo:42902:1,2021-03-01T00:46:00Z,28.6249,-87.9973,11.6,23.1,11111222
Shell,ioos:station:wmo:42902:1,2021-03-01T00:56:00Z,28.6249,-87.9973,11.6,22.9,11111222
Shell,ioos:station:wmo:42902:1,2021-03-01T01:06:00Z,28.6249,-87.9973,11.5,22.9,11111222
Shell,ioos:station:wmo:42902:1,2021-03-01T01:16:00Z,28.6249,-87.9973,11.5,22.6,11111222
Shell,ioos:station:wmo:42902:1,2021-03-01T01:26:00Z,28.6249,-87.9973,11.5,22.5,11111222
Shell,ioos:station:wmo:42902:1,2021-03-01T01:36:00Z,28.6248,-87.9973,11.5,22.5,11111222
Shell,ioos:station:wmo:42902:1,2021-03-01T01:46:00Z,28.6248,-87.9973,11.5,22.5,11111222
Shell,ioos:station:wmo:42902:1,2021-03-01T01:56:00Z,28.6248,-87.9973,11.5,22.5,11111222
Shell,ioos:station:wmo:42902:1,2021-03-01T02:06:00Z,28.6248,-87.9973,11.5,22.5,11111222
Shell,ioos:station:wmo:42902:1,2021-03-01T02:16:00Z,28.6248,-87.9973,11.5,22.3,11111222
Shell,ioos:station:wmo:42902:1,2021-03-01T02:26:00Z,28.6248,-87.9973,11.5,22.2,11111222
Shell,ioos:station:wmo:42902:1,2021-03-01T02:36:00Z,28.6248,-87.9973,11.5,22.1,11111222
Shell,ioos:station:wmo:42902:1,2021-03-01T02:46:00Z,28.6249,-87.9973,11.5,22.1,11111222
Shell,ioos:station:wmo:42902:1,2021-03-01T02:56:00Z,28.6249,-87.9973,11.5,22.1,11111222
Shell,ioos:station:wmo:42902:1,2021-03-01T03:06:00Z,28.6248,-87.9973,11.5,22.2,11111222
Shell,ioos:station:wmo:42902:1,2021-03-01T03:16:00Z,28.6248,-87.9973,11.5,22.3,11111222
Shell,ioos:station:wmo:42902:1,2021-03-01T03:26:00Z,28.6248,-87.9973,11.5,22.1,11111222
Shell,ioos:station:wmo:42902:1,2021-03-01T03:36:00Z,28.6249,-87.9973,11.5,22.0,11111222
Shell,ioos:station:wmo:42902:1,2021-03-01T03:46:00Z,28.6248,-87.9973,11.5,22.1,11111222
Shell,ioos:station:wmo:42902:1,2021-03-01T03:56:00Z,28.6249,-87.9973,11.5,22.1,11111222
Shell,ioos:station:wmo:42902:1,2021-03-01T04:06:00Z,28.6248,-87.9973,11.5,22.2,11111222
Shell,ioos:station:wmo:42902:1,2021-03-01T04:16:00Z,28.6248,-87.9973,11.5,22.3,11111222
Shell,ioos:station:wmo:42902:1,2021-03-01T04:26:00Z,28.6248,-87.9973,11.5,22.0,11111222
Shell,ioos:station:wmo:42902:1,2021-03-01T04:36:00Z,28.6248,-87.9973,11.5,21.9,11111222
Shell,ioos:station:wmo:42902:1,2021-03-01T04:46:00Z,28.6248,-87.9973,11.6,21.9,11111222
Shell,ioos:station:wmo:42902:1,2021-03-01T04:56:00Z,28.6248,-87.9973,11.5,21.8,11111222
Shell,ioos:station:wmo:42902:1,2021-03-01T05:06:00Z,28.6248,-87.9973,11.6,21.9,11111222
Shell,ioos:station:wmo:42902:1,2021-03-01T05:16:00Z,28.6248,-87.9973,11.5,21.8,11111222
Shell,ioos:station:wmo:42902:1,2021-03-01T05:26:00Z,28.6248,-87.9973,11.5,21.7,11111222
Shell,ioos:station:wmo:42902:1,2021-03-01T05:36:00Z,28.6248,-87.9973,11.5,21.7,11111222
Shell,ioos:station:wmo:42902:1,2021-03-01T05:46:00Z,28.6248,-87.9973,11.6,21.7,11111222
Shell,ioos:station:wmo:42902:1,2021-03-01T05:57:00Z,28.6248,-87.9973,11.6,21.8,11111222
Shell,ioos:station:wmo:42902:1,2021-03-01T06:07:00Z,28.6249,-87.9973,11.5,21.8,11111222
Shell,ioos:station:wmo:42902:1,2021-03-01T06:17:00Z,28.6249,-87.9973,11.5,21.8,11111222
Shell,ioos:station:wmo:42902:1,2021-03-01T06:27:00Z,28.6249,-87.9973,11.5,21.8,11111222
Shell,ioos:station:wmo:42902:1,2021-03-01T06:37:00Z,28.6248,-87.9973,11.5,21.8,11111222
Shell,ioos:station:wmo:42902:1,2021-03-01T06:47:00Z,28.6249,-87.9973,11.5,21.8,11111222
Shell,ioos:station:wmo:42902:1,2021-03-01T06:57:00Z,28.6248,-87.9973,11.5,21.8,11111222
Shell,ioos:station:wmo:42902:1,2021-03-01T07:07:00Z,28.6248,-87.9973,11.5,21.8,11111222
Shell,ioos:station:wmo:42902:1,2021-03-01T07:17:00Z,28.6248,-87.9973,11.5,21.8,11111222
Shell,ioos:station:wmo:42902:1,2021-03-01T07:27:00Z,28.6248,-87.9973,11.5,21.8,11111222
Shell,ioos:station:wmo:42902:1,2021-03-01T07:37:00Z,28.6249,-87.9973,11.5,21.7,11111222
Shell,ioos:station:wmo:42902:1,2021-03-01T07:47:00Z,28.6248,-87.9973,11.6,21.7,11111222
Shell,ioos:station:wmo:42902:1,2021-03-01T07:57:00Z,28.6248,-87.9973,11.4,21.7,11111222
Shell,ioos:station:wmo:42902:1,2021-03-01T08:07:00Z,28.6248,-87.9973,11.4,21.7,11111222
Shell,ioos:station:wmo:42902:1,2021-03-01T08:17:00Z,28.6248,-87.9973,11.3,21.6,11111222
Shell,ioos:station:wmo:42902:1,2021-03-01T08:27:00Z,28.6248,-87.9973,11.3,21.6,11111222
Shell,ioos:station:wmo:42902:1,2021-03-01T08:37:00Z,28.6248,-87.9973,11.5,21.6,11111222
Shell,ioos:station:wmo:42902:1,2021-03-01T08:47:00Z,28.6248,-87.9973,11.5,21.6,11111222
Shell,ioos:station:wmo:42902:1,2021-03-01T08:57:00Z,28.6248,-87.9973,11.5,21.7,11111222
Shell,ioos:station:wmo:42902:1,2021-03-01T09:07:00Z,28.6248,-87.9973,11.5,21.7,11111222
Shell,ioos:station:wmo:42902:1,2021-03-01T09:17:00Z,28.6248,-87.9973,11.5,21.6,11111222
Shell,ioos:station:wmo:42902:1,2021-03-01T09:27:00Z,28.6249,-87.9973,11.5,21.6,11111222
Shell,ioos:station:wmo:42902:1,2021-03-01T09:37:00Z,28.6249,-87.9973,11.5,21.6,11111222
Shell,ioos:station:wmo:42902:1,2021-03-01T09:47:00Z,28.6249,-87.9973,11.5,21.6,11111222
Shell,ioos:station:wmo:42902:1,2021-03-01T09:57:00Z,28.6249,-87.9973,11.5,21.6,11111222
Shell,ioos:station:wmo:42902:1,2021-03-01T10:07:00Z,28.6248,-87.9973,11.5,21.6,11111222
Shell,ioos:station:wmo:42902:1,2021-03-01T10:17:00Z,28.6248,-87.9973,11.5,21.6,11111222
Shell,ioos:station:wmo:42902:1,2021-03-01T10:27:00Z,28.6248,-87.9973,11.5,21.7,11111222
Shell,ioos:station:wmo:42902:1,2021-03-01T10:37:00Z,28.6249,-87.9973,11.5,21.8,11111222
Shell,ioos:station:wmo:42902:1,2021-03-01T10:47:00Z,28.6248,-87.9973,11.5,21.8,11111222
Shell,ioos:station:wmo:42902:1,2021-03-01T10:57:00Z,28.6248,-87.9973,11.4,21.8,11111222
Shell,ioos:station:wmo:42902:1,2021-03-01T11:07:00Z,28.6248,-87.9973,11.4,21.8,11111222
Shell,ioos:station:wmo:42902:1,2021-03-01T11:17:00Z,28.6248,-87.9973,11.5,21.8,11111222
Shell,ioos:station:wmo:42902:1,2021-03-01T11:27:00Z,28.6248,-87.9973,11.5,21.9,11111222
Shell,ioos:station:wmo:42902:1,2021-03-01T11:37:00Z,28.6248,-87.9973,11.5,21.9,11111222
Shell,ioos:station:wmo:42902:1,2021-03-01T11:47:00Z,28.6249,-87.9974,11.5,21.9,11111222
Shell,ioos:station:wmo:42902:1,2021-03-01T11:57:00Z,28.6248,-87.9973,11.5,21.9,11111222
Shell,ioos:station:wmo:42902:1,2021-03-01T12:07:00Z,28.6249,-87.9973,11.5,21.9,11111222
Shell,ioos:station:wmo:42902:1,2021-03-01T12:17:00Z,28.6248,-87.9973,11.5,21.9,11111222
Shell,ioos:station:wmo:42902:1,2021-03-01T12:27:00Z,28.6248,-87.9973,11.5,21.9,11111222
Shell,ioos:station:wmo:42902:1,2021-03-01T12:37:00Z,28.6248,-87.9973,11.5,21.8,11111222
Shell,ioos:station:wmo:42902:1,2021-03-01T12:47:00Z,28.6249,-87.9973,11.5,21.8,11111222
Shell,ioos:station:wmo:42902:1,2021-03-01T12:57:00Z,28.6249,-87.9973,11.5,21.8,11111222
Shell,ioos:station:wmo:42902:1,2021-03-01T13:07:00Z,28.6249,-87.9973,11.5,21.8,11111222
Shell,ioos:station:wmo:42902:1,2021-03-01T13:18:00Z,28.6249,-87.9973,11.5,21.8,11111222
Shell,ioos:station:wmo:42902:1,2021-03-01T13:28:00Z,28.6249,-87.9973,11.5,21.8,11111222
Shell,ioos:station:wmo:42902:1,2021-03-01T13:38:00Z,28.6249,-87.9973,11.5,21.8,11111222
Shell,ioos:station:wmo:42902:1,2021-03-01T13:48:00Z,28.6249,-87.9973,11.5,21.8,11111222
Shell,ioos:station:wmo:42902:1,2021-03-01T13:58:00Z,28.6248,-87.9973,11.5,21.8,11111222
Shell,ioos:station:wmo:42902:1,2021-03-01T14:08:00Z,28.6248,-87.9973,11.5,21.8,11111222
Shell,ioos:station:wmo:42902:1,2021-03-01T14:18:00Z,28.6249,-87.9973,11.6,21.8,11111222
Shell,ioos:station:wmo:42902:1,2021-03-01T14:28:00Z,28.6249,-87.9973,11.6,21.8,11111222
Shell,ioos:station:wmo:42902:1,2021-03-01T14:38:00Z,28.6249,-87.9973,11.6,21.8,11111222
Shell,ioos:station:wmo:42902:1,2021-03-01T14:48:00Z,28.6250,-87.9972,11.5,21.7,11111222
Shell,ioos:station:wmo:42902:1,2021-03-01T14:58:00Z,28.6250,-87.9972,11.5,21.7,11111222
Shell,ioos:station:wmo:42902:1,2021-03-01T15:08:00Z,28.6250,-87.9972,11.5,21.6,11111222
Shell,ioos:station:wmo:42902:1,2021-03-01T15:18:00Z,28.6250,-87.9972,11.5,21.6,11111222
Shell,ioos:station:wmo:42902:1,2021-03-01T15:28:00Z,28.6250,-87.9972,11.6,21.6,11111222
Shell,ioos:station:wmo:42902:1,2021-03-01T15:38:00Z,28.6250,-87.9972,11.6,21.6,11111222
Shell,ioos:station:wmo:42902:1,2021-03-01T15:48:00Z,28.6250,-87.9972,11.6,21.6,11111222
Shell,ioos:station:wmo:42902:1,2021-03-01T16:08:00Z,28.6250,-87.9972,11.7,21.5,11111222
Shell,ioos:station:wmo:42902:1,2021-03-01T16:18:00Z,28.6250,-87.9972,11.7,21.5,11111222
Shell,ioos:station:wmo:42902:1,2021-03-01T16:28:00Z,28.6250,-87.9972,11.7,21.5,11111222
Shell,ioos:station:wmo:42902:1,2021-03-01T16:38:00Z,28.6250,-87.9972,11.7,21.4,11111222
Shell,ioos:station:wmo:42902:1,2021-03-01T16:48:00Z,28.6250,-87.9972,11.4,21.3,11111222
Shell,ioos:station:wmo:42902:1,2021-03-01T16:58:00Z,28.6250,-87.9972,11.4,21.3,11111222
Shell,ioos:station:wmo:42902:1,2021-03-01T17:08:00Z,28.6250,-87.9972,11.4,21.3,11111222
Shell,ioos:station:wmo:42902:1,2021-03-01T17:18:00Z,28.6250,-87.9972,11.5,21.4,11111222
Shell,ioos:station:wmo:42902:1,2021-03-01T17:28:00Z,28.6250,-87.9972,11.5,21.4,11111222
Shell,ioos:station:wmo:42902:1,2021-03-01T17:38:00Z,28.6250,-87.9972,11.5,21.5,11111222
Shell,ioos:station:wmo:42902:1,2021-03-01T17:48:00Z,28.6250,-87.9972,11.5,21.5,11111222
Shell,ioos:station:wmo:42902:1,2021-03-01T17:58:00Z,28.6251,-87.9972,11.5,21.5,11111222
Shell,ioos:station:wmo:42902:1,2021-03-01T18:08:00Z,28.6251,-87.9972,11.5,21.5,11111222
Shell,ioos:station:wmo:42902:1,2021-03-01T18:18:00Z,28.6250,-87.9972,11.4,21.7,11111222
Shell,ioos:station:wmo:42902:1,2021-03-01T18:28:00Z,28.6251,-87.9972,11.4,21.7,11111222
Shell,ioos:station:wmo:42902:1,2021-03-01T18:38:00Z,28.6251,-87.9972,11.4,21.8,11111222
Shell,ioos:station:wmo:42902:1,2021-03-01T18:48:00Z,28.6250,-87.9972,11.5,21.9,11111222
Shell,ioos:station:wmo:42902:1,2021-03-01T18:58:00Z,28.6250,-87.9972,11.5,22.1,11111222
Shell,ioos:station:wmo:42902:1,2021-03-01T19:08:00Z,28.6250,-87.9972,11.4,22.2,11111222
Shell,ioos:station:wmo:42902:1,2021-03-01T19:18:00Z,28.6250,-87.9972,11.4,22.0,11111222
Shell,ioos:station:wmo:42902:1,2021-03-01T19:28:00Z,28.6250,-87.9972,11.4,21.4,11111222
Shell,ioos:station:wmo:42902:1,2021-03-01T19:38:00Z,28.6250,-87.9972,11.5,21.5,11111222
Shell,ioos:station:wmo:42902:1,2021-03-01T19:48:00Z,28.6250,-87.9972,11.5,21.6,11111222
Shell,ioos:station:wmo:42902:1,2021-03-01T19:58:00Z,28.6250,-87.9972,11.5,21.6,11111222
Shell,ioos:station:wmo:42902:1,2021-03-01T20:08:00Z,28.6250,-87.9972,11.5,21.6,11111222
Shell,ioos:station:wmo:42902:1,2021-03-01T20:18:00Z,28.6250,-87.9972,11.6,21.7,11111222
Shell,ioos:station:wmo:42902:1,2021-03-01T20:28:00Z,28.6250,-87.9972,11.6,21.7,11111222
Shell,ioos:station:wmo:42902:1,2021-03-01T20:39:00Z,28.6250,-87.9972,11.6,21.7,11111222
Shell,ioos:station:wmo:42902:1,2021-03-01T20:49:00Z,28.6250,-87.9972,11.6,21.7,11111222
Shell,ioos:station:wmo:42902:1,2021-03-01T20:59:00Z,28.6250,-87.9972,11.6,21.7,11111222
Shell,ioos:station:wmo:42902:1,2021-03-01T21:09:00Z,28.6250,-87.9972,11.6,21.7,11111222
Shell,ioos:station:wmo:42902:1,2021-03-01T21:19:00Z,28.6250,-87.9972,11.6,21.7,11111222
Shell,ioos:station:wmo:42902:1,2021-03-01T21:29:00Z,28.6250,-87.9972,11.6,21.7,11111222
Shell,ioos:station:wmo:42902:1,2021-03-01T21:39:00Z,28.6250,-87.9972,11.6,21.7,11111222
Shell,ioos:station:wmo:42902:1,2021-03-01T21:49:00Z,28.6250,-87.9972,11.7,21.7,11111222
Shell,ioos:station:wmo:42902:1,2021-03-01T21:59:00Z,28.6250,-87.9972,11.7,21.7,11111222
Shell,ioos:station:wmo:42902:1,2021-03-01T22:09:00Z,28.6251,-87.9972,11.7,21.7,11111222
Shell,ioos:station:wmo:42902:1,2021-03-01T22:19:00Z,28.6250,-87.9972,11.5,21.7,11111222
Shell,ioos:station:wmo:42902:1,2021-03-01T22:29:00Z,28.6250,-87.9972,11.5,21.7,11111222
Shell,ioos:station:wmo:42902:1,2021-03-01T22:39:00Z,28.6250,-87.9972,11.5,21.7,11111222
Shell,ioos:station:wmo:42902:1,2021-03-01T22:49:00Z,28.6251,-87.9972,11.5,21.8,11111222
Shell,ioos:station:wmo:42902:1,2021-03-01T22:59:00Z,28.6250,-87.9972,11.5,21.8,11111222
Shell,ioos:station:wmo:42902:1,2021-03-01T23:09:00Z,28.6250,-87.9972,11.6,21.8,11111222
Shell,ioos:station:wmo:42902:1,2021-03-01T23:19:00Z,28.6250,-87.9972,11.7,21.8,11111222
Shell,ioos:station:wmo:42902:1,2021-03-01T23:29:00Z,28.6250,-87.9972,11.7,21.8,11111222
Shell,ioos:station:wmo:42902:1,2021-03-01T23:39:00Z,28.6250,-87.9972,11.7,21.8,11111222
Shell,ioos:station:wmo:42902:1,2021-03-01T23:49:00Z,28.6253,-87.9966,11.7,21.8,11111222
Shell,ioos:station:wmo:42902:1,2021-03-01T23:59:00Z,28.6253,-87.9966,11.7,21.7,11111222
Shell,ioos:station:wmo:42902:1,2021-03-02T00:09:00Z,28.6253,-87.9966,11.6,21.7,11111222
Shell,ioos:station:wmo:42902:1,2021-03-02T00:19:00Z,28.6253,-87.9966,11.4,21.7,11111222
Shell,ioos:station:wmo:42902:1,2021-03-02T00:29:00Z,28.6253,-87.9966,11.4,21.7,11111222
Shell,ioos:station:wmo:42902:1,2021-03-02T00:39:00Z,28.6253,-87.9966,11.5,21.7,11111222
Shell,ioos:station:wmo:42902:1,2021-03-02T00:49:00Z,28.6253,-87.9967,11.4,21.6,11111222
Shell,ioos:station:wmo:42902:1,2021-03-02T00:59:00Z,28.6253,-87.9966,11.4,21.6,11111222
Shell,ioos:station:wmo:42902:1,2021-03-02T01:09:00Z,28.6253,-87.9966,11.3,21.6,11111222
Shell,ioos:station:wmo:42902:1,2021-03-02T01:19:00Z,28.6253,-87.9967,11.3,21.5,11111222
Shell,ioos:station:wmo:42902:1,2021-03-02T01:29:00Z,28.6253,-87.9966,11.3,21.4,11111222
Shell,ioos:station:wmo:42902:1,2021-03-02T01:39:00Z,28.6253,-87.9964,11.3,21.4,11111222
Shell,ioos:station:wmo:42902:1,2021-03-02T01:49:00Z,28.6253,-87.9964,11.5,21.3,11111222
Shell,ioos:station:wmo:42902:1,2021-03-02T01:59:00Z,28.6253,-87.9964,11.5,21.4,11111222
Shell,ioos:station:wmo:42902:1,2021-03-02T02:09:00Z,28.6253,-87.9964,11.5,21.4,11111222
Shell,ioos:station:wmo:42902:1,2021-03-02T02:19:00Z,28.6253,-87.9964,11.6,21.5,11111222
Shell,ioos:station:wmo:42902:1,2021-03-02T02:29:00Z,28.6253,-87.9964,11.5,21.6,11111222
Shell,ioos:station:wmo:42902:1,2021-03-02T02:39:00Z,28.6253,-87.9964,11.5,21.5,11111222
Shell,ioos:station:wmo:42902:1,2021-03-02T02:49:00Z,28.6253,-87.9964,11.4,21.5,11111222
Shell,ioos:station:wmo:42902:1,2021-03-02T02:59:00Z,28.6253,-87.9964,11.4,21.3,11111222
Shell,ioos:station:wmo:42902:1,2021-03-02T03:09:00Z,28.6253,-87.9964,11.4,21.4,11111222
Shell,ioos:station:wmo:42902:1,2021-03-02T03:19:00Z,28.6253,-87.9962,11.4,21.5,11111222
Shell,ioos:station:wmo:42902:1,2021-03-02T03:29:00Z,28.6253,-87.9962,11.5,21.3,11111222
Shell,ioos:station:wmo:42902:1,2021-03-02T03:39:00Z,28.6253,-87.9962,11.4,21.2,11111222
Shell,ioos:station:wmo:42902:1,2021-03-02T03:49:00Z,28.6253,-87.9962,11.5,21.2,11111222
Shell,ioos:station:wmo:42902:1,2021-03-02T04:00:00Z,28.6253,-87.9962,11.5,21.2,11111222
Shell,ioos:station:wmo:42902:1,2021-03-02T04:10:00Z,28.6253,-87.9962,11.5,21.2,11111222
Shell,ioos:station:wmo:42902:1,2021-03-02T04:20:00Z,28.6253,-87.9962,11.5,21.2,11111222
Shell,ioos:station:wmo:42902:1,2021-03-02T04:30:00Z,28.6253,-87.9960,11.5,21.3,11111222
Shell,ioos:station:wmo:42902:1,2021-03-02T04:40:00Z,28.6252,-87.9960,11.6,21.4,11111222
Shell,ioos:station:wmo:42902:1,2021-03-02T04:50:00Z,28.6252,-87.9960,11.5,21.4,11111222
Shell,ioos:station:wmo:42902:1,2021-03-02T05:00:00Z,28.6252,-87.9960,11.4,21.5,11111222
Shell,ioos:station:wmo:42902:1,2021-03-02T05:10:00Z,28.6252,-87.9960,11.4,21.5,11111222
Shell,ioos:station:wmo:42902:1,2021-03-02T05:20:00Z,28.6252,-87.9961,11.5,21.5,11111222
Shell,ioos:station:wmo:42902:1,2021-03-02T05:30:00Z,28.6252,-87.9960,11.4,21.5,11111222
Shell,ioos:station:wmo:42902:1,2021-03-02T05:40:00Z,28.6252,-87.9960,11.4,21.4,11111222
Shell,ioos:station:wmo:42902:1,2021-03-02T05:50:00Z,28.6253,-87.9960,11.4,21.4,11111222
Shell,ioos:station:wmo:42902:1,2021-03-02T06:00:00Z,28.6252,-87.9960,11.5,21.2,11111222
Shell,ioos:station:wmo:42902:1,2021-03-02T06:10:00Z,28.6253,-87.9960,11.5,21.2,11111222
Shell,ioos:station:wmo:42902:1,2021-03-02T06:20:00Z,28.6253,-87.9960,11.4,21.1,11111222
Shell,ioos:station:wmo:42902:1,2021-03-02T06:30:00Z,28.6253,-87.9960,11.4,21.0,11111222
Shell,ioos:station:wmo:42902:1,2021-03-02T06:40:00Z,28.6253,-87.9960,11.4,21.0,11111222
Shell,ioos:station:wmo:42902:1,2021-03-02T06:50:00Z,28.6252,-87.9960,11.4,20.9,11111222
Shell,ioos:station:wmo:42902:1,2021-03-02T07:00:00Z,28.6252,-87.9960,11.3,20.9,11111222
Shell,ioos:station:wmo:42902:1,2021-03-02T07:10:00Z,28.6252,-87.9960,11.3,20.9,11111222
Shell,ioos:station:wmo:42902:1,2021-03-02T07:20:00Z,28.6252,-87.9960,11.5,20.9,11111222
Shell,ioos:station:wmo:42902:1,2021-03-02T07:30:00Z,28.6252,-87.9960,11.5,20.8,11111222
Shell,ioos:station:wmo:42902:1,2021-03-02T07:40:00Z,28.6252,-87.9960,11.6,20.8,11111222
Shell,ioos:station:wmo:42902:1,2021-03-02T07:50:00Z,28.6252,-87.9960,11.5,20.7,11111222
Shell,ioos:station:wmo:42902:1,2021-03-02T08:00:00Z,28.6252,-87.9961,11.5,20.7,11111222
Shell,ioos:station:wmo:42902:1,2021-03-02T08:10:00Z,28.6252,-87.9960,11.5,20.5,11111222
Shell,ioos:station:wmo:42902:1,2021-03-02T08:20:00Z,28.6252,-87.9961,11.5,20.4,11111222
Shell,ioos:station:wmo:42902:1,2021-03-02T08:30:00Z,28.6252,-87.9960,11.5,20.5,11111222
Shell,ioos:station:wmo:42902:1,2021-03-02T08:40:00Z,28.6252,-87.9960,11.5,20.4,11111222
Shell,ioos:station:wmo:42902:1,2021-03-02T08:50:00Z,28.6252,-87.9960,11.5,20.4,11111222
Shell,ioos:station:wmo:42902:1,2021-03-02T09:00:00Z,28.6252,-87.9960,11.6,20.4,11111222
Shell,ioos:station:wmo:42902:1,2021-03-02T09:10:00Z,28.6252,-87.9960,11.6,20.4,11111222
Shell,ioos:station:wmo:42902:1,2021-03-02T09:20:00Z,28.6252,-87.9960,11.4,20.4,11111222
Shell,ioos:station:wmo:42902:1,2021-03-02T09:30:00Z,28.6252,-87.9960,11.3,20.4,11111222
Shell,ioos:station:wmo:42902:1,2021-03-02T09:40:00Z,28.6252,-87.9960,11.3,20.4,11111222
Shell,ioos:station:wmo:42902:1,2021-03-02T09:50:00Z,28.6252,-87.9960,11.3,20.4,11111222
Shell,ioos:station:wmo:42902:1,2021-03-02T10:00:00Z,28.6252,-87.9960,11.3,20.4,11111222
Shell,ioos:station:wmo:42902:1,2021-03-02T10:10:00Z,28.6252,-87.9960,11.4,20.4,11111222
Shell,ioos:station:wmo:42902:1,2021-03-02T10:20:00Z,28.6252,-87.9960,11.4,20.4,11111222
Shell,ioos:station:wmo:42902:1,2021-03-02T10:30:00Z,28.6252,-87.9960,11.5,20.3,11111222
Shell,ioos:station:wmo:42902:1,2021-03-02T10:40:00Z,28.6252,-87.9960,11.5,20.3,11111222
Shell,ioos:station:wmo:42902:1,2021-03-02T10:50:00Z,28.6252,-87.9960,11.5,20.3,11111222
Shell,ioos:station:wmo:42902:1,2021-03-02T11:00:00Z,28.6252,-87.9960,11.4,20.3,11111222
Shell,ioos:station:wmo:42902:1,2021-03-02T11:10:00Z,28.6252,-87.9960,11.4,20.3,11111222
Shell,ioos:station:wmo:42902:1,2021-03-02T11:21:00Z,28.6252,-87.9960,11.4,20.3,11111222
Shell,ioos:station:wmo:42902:1,2021-03-02T11:31:00Z,28.6250,-87.9957,11.4,20.3,11111222
Shell,ioos:station:wmo:42902:1,2021-03-02T11:41:00Z,28.6250,-87.9957,11.6,20.3,11111222
Shell,ioos:station:wmo:42902:1,2021-03-02T11:51:00Z,28.6250,-87.9957,11.6,20.3,11111222
Shell,ioos:station:wmo:42902:1,2021-03-02T12:01:00Z,28.6250,-87.9957,11.7,20.3,11111222
Shell,ioos:station:wmo:42902:1,2021-03-02T12:11:00Z,28.6250,-87.9957,11.7,20.3,11111222
Shell,ioos:station:wmo:42902:1,2021-03-02T12:21:00Z,28.6250,-87.9957,11.7,20.3,11111222
Shell,ioos:station:wmo:42902:1,2021-03-02T12:31:00Z,28.6250,-87.9957,11.6,20.3,11111222
Shell,ioos:station:wmo:42902:1,2021-03-02T12:41:00Z,28.6250,-87.9957,11.6,20.3,11111222
Shell,ioos:station:wmo:42902:1,2021-03-02T12:51:00Z,28.6250,-87.9957,11.6,20.3,11111222
Shell,ioos:station:wmo:42902:1,2021-03-02T13:01:00Z,28.6250,-87.9957,11.6,20.3,11111222
Shell,ioos:station:wmo:42902:1,2021-03-02T13:11:00Z,28.6250,-87.9957,11.5,20.3,11111222
Shell,ioos:station:wmo:42902:1,2021-03-02T13:21:00Z,28.6250,-87.9957,11.4,20.3,11111222
Shell,ioos:station:wmo:42902:1,2021-03-02T13:31:00Z,28.6250,-87.9957,11.5,20.3,11111222
Shell,ioos:station:wmo:42902:1,2021-03-02T13:41:00Z,28.6250,-87.9957,11.6,20.3,11111222
Shell,ioos:station:wmo:42902:1,2021-03-02T13:51:00Z,28.6250,-87.9957,11.6,20.3,11111222
Shell,ioos:station:wmo:42902:1,2021-03-02T14:01:00Z,28.6250,-87.9957,11.6,20.4,11111222
Shell,ioos:station:wmo:42902:1,2021-03-02T14:11:00Z,28.6250,-87.9957,11.6,20.4,11111222
Shell,ioos:station:wmo:42902:1,2021-03-02T14:21:00Z,28.6250,-87.9957,11.7,20.4,11111222
Shell,ioos:station:wmo:42902:1,2021-03-02T14:31:00Z,28.6250,-87.9957,11.8,20.4,11111222
Shell,ioos:station:wmo:42902:1,2021-03-02T14:41:00Z,28.6250,-87.9957,11.7,20.4,11111222
Shell,ioos:station:wmo:42902:1,2021-03-02T14:51:00Z,28.6250,-87.9957,11.6,20.4,11111222
Shell,ioos:station:wmo:42902:1,2021-03-02T15:01:00Z,28.6250,-87.9957,11.5,20.4,11111222
Shell,ioos:station:wmo:42902:1,2021-03-02T15:11:00Z,28.6250,-87.9957,11.5,20.5,11111222
Shell,ioos:station:wmo:42902:1,2021-03-02T15:21:00Z,28.6250,-87.9957,11.5,20.7,11111222
Shell,ioos:station:wmo:42902:1,2021-03-02T15:31:00Z,28.6250,-87.9957,11.4,20.8,11111222
Shell,ioos:station:wmo:42902:1,2021-03-02T15:41:00Z,28.6250,-87.9957,11.4,20.8,11111222
Shell,ioos:station:wmo:42902:1,2021-03-02T15:51:00Z,28.6250,-87.9957,11.5,20.8,11111222
Shell,ioos:station:wmo:42902:1,2021-03-02T16:01:00Z,28.6250,-87.9957,11.5,20.9,11111222
Shell,ioos:station:wmo:42902:1,2021-03-02T16:11:00Z,28.6250,-87.9957,11.5,20.9,11111222
Shell,ioos:station:wmo:42902:1,2021-03-02T16:21:00Z,28.6250,-87.9957,11.5,21.0,11111222
Shell,ioos:station:wmo:42902:1,2021-03-02T16:31:00Z,28.6250,-87.9957,11.5,21.1,11111222
Shell,ioos:station:wmo:42902:1,2021-03-02T16:41:00Z,28.6253,-87.9961,11.4,21.1,11111222
Shell,ioos:station:wmo:42902:1,2021-03-02T16:51:00Z,28.6251,-87.9971,11.3,21.1,11111222
Shell,ioos:station:wmo:42902:1,2021-03-02T17:01:00Z,28.6251,-87.9971,11.3,21.1,11111222
Shell,ioos:station:wmo:42902:1,2021-03-02T17:11:00Z,28.6251,-87.9971,11.5,21.1,11111222
Shell,ioos:station:wmo:42902:1,2021-03-02T17:21:00Z,28.6251,-87.9971,11.5,21.1,11111222
Shell,ioos:station:wmo:42902:1,2021-03-02T17:31:00Z,28.6251,-87.9971,11.4,21.1,11111222
Shell,ioos:station:wmo:42902:1,2021-03-02T17:41:00Z,28.6251,-87.9971,11.4,21.2,11111222
Shell,ioos:station:wmo:42902:1,2021-03-02T17:51:00Z,28.6251,-87.9971,11.4,21.2,11111222
Shell,ioos:station:wmo:42902:1,2021-03-02T18:01:00Z,28.6251,-87.9971,11.4,21.2,11111222
Shell,ioos:station:wmo:42902:1,2021-03-02T18:11:00Z,28.6251,-87.9971,11.4,21.2,11111222
Shell,ioos:station:wmo:42902:1,2021-03-02T18:21:00Z,28.6251,-87.9971,11.4,21.3,11111222
Shell,ioos:station:wmo:42902:1,2021-03-02T18:31:00Z,28.6251,-87.9971,11.3,21.2,11111222
Shell,ioos:station:wmo:42902:1,2021-03-02T18:42:00Z,28.6251,-87.9971,11.3,21.2,11111222
Shell,ioos:station:wmo:42902:1,2021-03-02T18:52:00Z,28.6251,-87.9971,11.3,21.3,11111222
Shell,ioos:station:wmo:42902:1,2021-03-02T19:02:00Z,28.6251,-87.9971,11.3,21.4,11111222
Shell,ioos:station:wmo:42902:1,2021-03-02T19:12:00Z,28.6251,-87.9971,11.3,21.5,11111222
Shell,ioos:station:wmo:42902:1,2021-03-02T19:22:00Z,28.6251,-87.9971,11.2,21.5,11111222
Shell,ioos:station:wmo:42902:1,2021-03-02T19:32:00Z,28.6251,-87.9971,11.2,21.7,11111222
Shell,ioos:station:wmo:42902:1,2021-03-02T19:42:00Z,28.6251,-87.9971,11.1,22.0,11111222
Shell,ioos:station:wmo:42902:1,2021-03-02T19:52:00Z,28.6251,-87.9971,11.2,22.0,11111222
Shell,ioos:station:wmo:42902:1,2021-03-02T20:02:00Z,28.6251,-87.9971,11.2,22.1,11111222
Shell,ioos:station:wmo:42902:1,2021-03-02T20:12:00Z,28.6251,-87.9971,11.2,22.2,11111222
Shell,ioos:station:wmo:42902:1,2021-03-02T20:22:00Z,28.6251,-87.9971,11.2,22.2,11111222
Shell,ioos:station:wmo:42902:1,2021-03-02T20:32:00Z,28.6251,-87.9971,11.1,22.3,11111222
Shell,ioos:station:wmo:42902:1,2021-03-02T20:42:00Z,28.6251,-87.9971,11.2,22.5,11111222
Shell,ioos:station:wmo:42902:1,2021-03-02T20:52:00Z,28.6251,-87.9971,11.2,22.7,11111222